| time (UTC) | temp C | wind direction | speed KPH | gust KPH | rain 1hr cm | rain 24hr cm | rain mn cm | humidity % | barometer mb |
| 20260906052755 | 22 | 51 | 1.6 | 3.2 | 0.00 | 0.00 | 0.00 | 98 | 1018.2 |
| 20260906052247 | 22 | 53 | 1.6 | 3.2 | 0.00 | 0.00 | 0.00 | 97 | 1018.3 |
| 20260906051744 | 23 | 60 | 3.2 | 4.8 | 0.00 | 0.00 | 0.00 | 97 | 1018.5 |
| 20260906051244 | 23 | 53 | 3.2 | 3.2 | 0.00 | 0.00 | 0.00 | 97 | 1018.6 |
| 20260906050739 | 23 | 53 | 3.2 | 4.8 | 0.00 | 0.00 | 0.00 | 97 | 1018.2 |
| 20260906050234 | 23 | 55 | 4.8 | 6.4 | 0.00 | 0.00 | 0.00 | 97 | 1018.2 |
| 20260906045732 | 23 | 43 | 3.2 | 4.8 | 0.00 | 0.00 | 0.00 | 97 | 1017.7 |
| 20260906045227 | 23 | 56 | 4.8 | 4.8 | 0.00 | 0.00 | 0.00 | 97 | 1017.8 |
| 20260906044722 | 23 | 60 | 3.2 | 6.4 | 0.00 | 0.00 | 0.00 | 97 | 1017.9 |
| 20260906044218 | 23 | 62 | 6.4 | 6.4 | 0.00 | 0.00 | 0.00 | 97 | 1017.6 |
| 20260906043714 | 23 | 62 | 6.4 | 6.4 | 0.00 | 0.00 | 0.00 | 97 | 1017.7 |
| 20260906043209 | 23 | 64 | 6.4 | 9.7 | 0.00 | 0.00 | 0.00 | 97 | 1017.6 |
| 20260906042709 | 23 | 66 | 6.4 | 11.3 | 0.00 | 0.00 | 0.00 | 96 | 1017.5 |
| 20260906042203 | 23 | 52 | 8.0 | 11.3 | 0.00 | 0.00 | 0.00 | 96 | 1017.7 |
| 20260906041659 | 23 | 60 | 8.0 | 12.9 | 0.00 | 0.00 | 0.00 | 96 | 1017.7 |
| 20260906041154 | 23 | 74 | 9.7 | 12.9 | 0.00 | 0.00 | 0.00 | 96 | 1017.5 |
| 20260906040649 | 24 | 62 | 8.0 | 12.9 | 0.00 | 0.00 | 0.00 | 96 | 1017.2 |
| 20260906040144 | 24 | 76 | 8.0 | 12.9 | 0.00 | 0.00 | 0.00 | 95 | 1017.5 |
| 20260906035639 | 24 | 60 | 8.0 | 11.3 | 0.00 | 0.00 | 0.00 | 95 | 1017.4 |
| 20260906035135 | 24 | 41 | 11.3 | 12.9 | 0.00 | 0.00 | 0.00 | 95 | 1017.4 |
| 20260906034629 | 24 | 46 | 9.7 | 11.3 | 0.00 | 0.00 | 0.00 | 95 | 1017.3 |
| 20260906034124 | 25 | 56 | 8.0 | 12.9 | 0.00 | 0.00 | 0.00 | 94 | 1017.4 |
| 20260906033620 | 25 | 55 | 9.7 | 14.5 | 0.00 | 0.00 | 0.00 | 94 | 1017.2 |
| 20260906033120 | 25 | 65 | 11.3 | 14.5 | 0.00 | 0.00 | 0.00 | 93 | 1017.0 |
| 20260906032617 | 25 | 64 | 12.9 | 16.1 | 0.00 | 0.00 | 0.00 | 93 | 1017.4 |
| 20260906032116 | 25 | 76 | 12.9 | 16.1 | 0.00 | 0.00 | 0.00 | 93 | 1017.1 |
| 20260906031612 | 25 | 63 | 11.3 | 17.7 | 0.00 | 0.00 | 0.00 | 93 | 1017.0 |
| 20260906031107 | 25 | 62 | 11.3 | 14.5 | 0.00 | 0.00 | 0.00 | 93 | 1017.3 |
| 20260906030606 | 25 | 53 | 12.9 | 16.1 | 0.00 | 0.00 | 0.00 | 93 | 1017.1 |
| 20260906025601 | 25 | 52 | 12.9 | 14.5 | 0.00 | 0.00 | 0.00 | 94 | 1016.9 |
| 20260906025059 | 26 | 56 | 9.7 | 14.5 | 0.00 | 0.00 | 0.00 | 93 | 1016.9 |
| 20260906024555 | 26 | 48 | 6.4 | 9.7 | 0.00 | 0.00 | 0.00 | 94 | 1017.0 |
| 20260906024049 | 26 | 50 | 9.7 | 12.9 | 0.00 | 0.00 | 0.00 | 93 | 1016.7 |
| 20260906023545 | 26 | 55 | 9.7 | 12.9 | 0.00 | 0.00 | 0.00 | 93 | 1017.1 |
| 20260906023040 | 26 | 60 | 8.0 | 9.7 | 0.00 | 0.00 | 0.00 | 93 | 1016.8 |
| 20260906022536 | 26 | 64 | 6.4 | 6.4 | 0.00 | 0.00 | 0.00 | 92 | 1016.7 |
| 20260906022031 | 26 | 7 | 6.4 | 11.3 | 0.00 | 0.00 | 0.00 | 92 | 1016.6 |
| 20260906021526 | 26 | 50 | 4.8 | 4.8 | 0.00 | 0.00 | 0.00 | 92 | 1016.5 |
| 20260906021020 | 27 | 58 | 11.3 | 14.5 | 0.00 | 0.00 | 0.00 | 91 | 1016.6 |
| 20260906020519 | 27 | 50 | 8.0 | 12.9 | 0.00 | 0.00 | 0.00 | 91 | 1016.1 |
| 20260906020019 | 27 | 57 | 8.0 | 11.3 | 0.00 | 0.00 | 0.00 | 91 | 1016.1 |
| 20260906015518 | 27 | 48 | 9.7 | 11.3 | 0.00 | 0.00 | 0.00 | 90 | 1016.2 |
| 20260906015012 | 27 | 50 | 6.4 | 12.9 | 0.00 | 0.00 | 0.00 | 90 | 1016.0 |
| 20260906014507 | 27 | 60 | 4.8 | 9.7 | 0.00 | 0.00 | 0.00 | 90 | 1016.1 |
| 20260906014003 | 27 | 62 | 6.4 | 9.7 | 0.00 | 0.00 | 0.00 | 90 | 1015.9 |
| 20260906013458 | 27 | 32 | 1.6 | 4.8 | 0.00 | 0.00 | 0.00 | 89 | 1015.9 |
| 20260906012948 | 27 | 35 | 3.2 | 6.4 | 0.00 | 0.00 | 0.00 | 90 | 1015.6 |
| 20260906012443 | 27 | 6 | 4.8 | 4.8 | 0.00 | 0.00 | 0.00 | 90 | 1015.7 |
| 20260906011942 | 27 | 37 | 1.6 | 3.2 | 0.00 | 0.00 | 0.00 | 90 | 1015.9 |
| 20260906011438 | 27 | 13 | 3.2 | 3.2 | 0.00 | 0.00 | 0.00 | 89 | 1015.8 |
| 20260906010933 | 28 | 28 | 3.2 | 3.2 | 0.00 | 0.00 | 0.00 | 89 | 1015.6 |
| 20260906010428 | 28 | 4 | 1.6 | 3.2 | 0.00 | 0.00 | 0.00 | 89 | 1015.6 |
| 20260906005925 | 28 | 12 | 3.2 | 4.8 | 0.00 | 0.00 | 0.00 | 89 | 1015.6 |
| 20260906005424 | 28 | 37 | 3.2 | 4.8 | 0.00 | 0.00 | 0.00 | 88 | 1015.6 |
| 20260906004922 | 28 | 35 | 4.8 | 4.8 | 0.00 | 0.00 | 0.00 | 89 | 1015.7 |
| 20260906004417 | 28 | 32 | 4.8 | 4.8 | 0.00 | 0.00 | 0.00 | 89 | 1015.7 |
| 20260906003913 | 28 | 38 | 3.2 | 3.2 | 0.00 | 0.00 | 0.00 | 88 | 1015.4 |
| 20260906003408 | 28 | 55 | 1.6 | 3.2 | 0.00 | 0.00 | 0.00 | 88 | 1015.6 |
| 20260906002903 | 28 | 22 | 3.2 | 3.2 | 0.00 | 0.00 | 0.00 | 88 | 1015.5 |
| 20260906002403 | 29 | 50 | 1.6 | 3.2 | 0.00 | 0.00 | 0.00 | 87 | 1015.6 |
| 20260906001858 | 29 | 38 | 1.6 | 4.8 | 0.00 | 0.00 | 0.00 | 86 | 1015.5 |
| 20260906001353 | 29 | 34 | 1.6 | 3.2 | 0.00 | 0.00 | 0.00 | 86 | 1015.5 |
| 20260906000848 | 29 | 11 | 0.0 | 1.6 | 0.00 | 0.00 | 0.00 | 86 | 1015.7 |
| 20260906000348 | 30 | 53 | 3.2 | 4.8 | 0.00 | 0.00 | 0.00 | 85 | 1015.6 |
| 20260905235843 | 30 | 59 | 0.0 | 3.2 | 0.00 | 0.00 | 0.00 | 85 | 1015.6 |
| 20260905235337 | 30 | 32 | 0.0 | 1.6 | 0.00 | 0.00 | 0.00 | 83 | 1015.6 |
| 20260905234833 | 30 | 50 | 0.0 | 3.2 | 0.00 | 0.00 | 0.00 | 83 | 1015.5 |
| 20260905234328 | 30 | 40 | 3.2 | 4.8 | 0.00 | 0.00 | 0.00 | 83 | 1015.5 |
| 20260905233823 | 31 | 53 | 4.8 | 6.4 | 0.00 | 0.00 | 0.00 | 81 | 1015.5 |
| 20260905233318 | 31 | 56 | 6.4 | 6.4 | 0.00 | 0.00 | 0.00 | 81 | 1015.3 |
| 20260905232817 | 31 | 62 | 1.6 | 6.4 | 0.00 | 0.00 | 0.00 | 81 | 1015.6 |
| 20260905232313 | 31 | 47 | 3.2 | 4.8 | 0.00 | 0.00 | 0.00 | 79 | 1015.4 |
| 20260905231809 | 31 | 26 | 3.2 | 4.8 | 0.00 | 0.00 | 0.00 | 79 | 1015.4 |
| 20260905231304 | 31 | 81 | 3.2 | 9.7 | 0.00 | 0.00 | 0.00 | 78 | 1015.2 |
| 20260905230800 | 31 | 62 | 4.8 | 9.7 | 0.00 | 0.00 | 0.00 | 76 | 1015.1 |
| 20260905230258 | 32 | 58 | 4.8 | 9.7 | 0.00 | 0.00 | 0.00 | 76 | 1015.1 |
| 20260905225758 | 32 | 88 | 6.4 | 12.9 | 0.00 | 0.00 | 0.00 | 76 | 1015.1 |
| 20260905225253 | 32 | 53 | 6.4 | 12.9 | 0.00 | 0.00 | 0.00 | 76 | 1015.2 |
| 20260905224752 | 32 | 51 | 8.0 | 11.3 | 0.00 | 0.00 | 0.00 | 75 | 1015.2 |
| 20260905224248 | 32 | 52 | 9.7 | 14.5 | 0.00 | 0.00 | 0.00 | 76 | 1015.1 |
| 20260905223743 | 32 | 68 | 8.0 | 14.5 | 0.00 | 0.00 | 0.00 | 74 | 1015.2 |
| 20260905223240 | 32 | 348 | 3.2 | 12.9 | 0.00 | 0.00 | 0.00 | 74 | 1015.2 |
| 20260905222736 | 32 | 27 | 3.2 | 12.9 | 0.00 | 0.00 | 0.00 | 72 | 1015.5 |
| 20260905222234 | 32 | 56 | 4.8 | 17.7 | 0.00 | 0.00 | 0.00 | 72 | 1015.4 |
| 20260905221731 | 32 | 4 | 6.4 | 12.9 | 0.00 | 0.00 | 0.00 | 71 | 1015.1 |
| 20260905221227 | 33 | 330 | 6.4 | 9.7 | 0.00 | 0.00 | 0.00 | 73 | 1015.2 |
| 20260905220723 | 33 | 36 | 6.4 | 14.5 | 0.00 | 0.00 | 0.00 | 69 | 1015.3 |
| 20260905220219 | 33 | 38 | 6.4 | 9.7 | 0.00 | 0.00 | 0.00 | 70 | 1015.2 |
| 20260905215718 | 33 | 92 | 4.8 | 11.3 | 0.00 | 0.00 | 0.00 | 70 | 1015.4 |
| 20260905215214 | 33 | 358 | 3.2 | 12.9 | 0.00 | 0.00 | 0.00 | 70 | 1015.3 |
| 20260905214710 | 33 | 343 | 6.4 | 11.3 | 0.00 | 0.00 | 0.00 | 69 | 1015.3 |
| 20260905214205 | 33 | 67 | 6.4 | 12.9 | 0.00 | 0.00 | 0.00 | 70 | 1015.4 |
| 20260905213700 | 33 | 345 | 6.4 | 14.5 | 0.00 | 0.00 | 0.00 | 68 | 1015.2 |
| 20260905213156 | 33 | 30 | 8.0 | 9.7 | 0.00 | 0.00 | 0.00 | 70 | 1015.3 |
| 20260905212651 | 33 | 43 | 14.5 | 17.7 | 0.00 | 0.00 | 0.00 | 68 | 1015.5 |
| 20260905212150 | 33 | 346 | 11.3 | 16.1 | 0.00 | 0.00 | 0.00 | 69 | 1015.5 |
| 20260905211645 | 33 | 38 | 6.4 | 9.7 | 0.00 | 0.00 | 0.00 | 69 | 1015.4 |
| 20260905211140 | 33 | 0 | 8.0 | 16.1 | 0.00 | 0.00 | 0.00 | 68 | 1015.4 |
| 20260905210636 | 33 | 76 | 6.4 | 17.7 | 0.00 | 0.00 | 0.00 | 68 | 1015.3 |
| 20260905210131 | 33 | 31 | 11.3 | 14.5 | 0.00 | 0.00 | 0.00 | 69 | 1015.4 |
| 20260905205625 | 33 | 32 | 11.3 | 17.7 | 0.00 | 0.00 | 0.00 | 69 | 1015.5 |
| 20260905205124 | 33 | 7 | 16.1 | 20.9 | 0.00 | 0.00 | 0.00 | 68 | 1015.5 |
| 20260905204618 | 33 | 38 | 6.4 | 14.5 | 0.00 | 0.00 | 0.00 | 69 | 1015.7 |
| 20260905204114 | 32 | 7 | 8.0 | 14.5 | 0.00 | 0.00 | 0.00 | 70 | 1015.6 |
| 20260905203614 | 32 | 337 | 8.0 | 12.9 | 0.00 | 0.00 | 0.00 | 74 | 1015.7 |
| 20260905203109 | 32 | 352 | 8.0 | 11.3 | 0.00 | 0.00 | 0.00 | 71 | 1015.6 |
| 20260905202604 | 33 | 354 | 11.3 | 12.9 | 0.00 | 0.00 | 0.00 | 69 | 1015.8 |
| 20260905202059 | 33 | 3 | 8.0 | 14.5 | 0.00 | 0.00 | 0.00 | 73 | 1015.9 |
| 20260905201555 | 32 | 48 | 6.4 | 11.3 | 0.00 | 0.00 | 0.00 | 73 | 1015.8 |
| 20260905201054 | 32 | 34 | 6.4 | 12.9 | 0.00 | 0.00 | 0.00 | 73 | 1015.5 |
| 20260905200550 | 32 | 355 | 9.7 | 14.5 | 0.00 | 0.00 | 0.00 | 72 | 1015.9 |
| 20260905200044 | 32 | 19 | 9.7 | 11.3 | 0.00 | 0.00 | 0.00 | 73 | 1015.6 |
| 20260905195538 | 33 | 33 | 11.3 | 14.5 | 0.00 | 0.00 | 0.00 | 72 | 1016.0 |
| 20260905195033 | 33 | 18 | 9.7 | 12.9 | 0.00 | 0.00 | 0.00 | 71 | 1016.2 |
| 20260905194527 | 33 | 41 | 4.8 | 12.9 | 0.00 | 0.00 | 0.00 | 71 | 1015.9 |
| 20260905194027 | 33 | 350 | 9.7 | 12.9 | 0.00 | 0.00 | 0.00 | 70 | 1016.0 |
| 20260905193522 | 33 | 2 | 6.4 | 9.7 | 0.00 | 0.00 | 0.00 | 65 | 1016.1 |
| 20260905193017 | 33 | 4 | 11.3 | 16.1 | 0.00 | 0.00 | 0.00 | 66 | 1016.1 |
| 20260905192512 | 33 | 13 | 8.0 | 16.1 | 0.00 | 0.00 | 0.00 | 66 | 1016.0 |
| 20260905192009 | 33 | 321 | 9.7 | 11.3 | 0.00 | 0.00 | 0.00 | 64 | 1016.0 |
| 20260905191507 | 34 | 296 | 1.6 | 9.7 | 0.00 | 0.00 | 0.00 | 62 | 1016.0 |
| 20260905191006 | 35 | 269 | 8.0 | 12.9 | 0.00 | 0.00 | 0.00 | 60 | 1015.9 |
| 20260905190504 | 34 | 18 | 9.7 | 12.9 | 0.00 | 0.00 | 0.00 | 62 | 1016.0 |
| 20260905190004 | 34 | 0 | 11.3 | 16.1 | 0.00 | 0.00 | 0.00 | 64 | 1015.8 |
| 20260905185459 | 34 | 312 | 6.4 | 11.3 | 0.00 | 0.00 | 0.00 | 63 | 1016.3 |
| 20260905184957 | 34 | 347 | 3.2 | 11.3 | 0.00 | 0.00 | 0.00 | 61 | 1016.2 |
| 20260905184452 | 34 | 13 | 9.7 | 14.5 | 0.00 | 0.00 | 0.00 | 64 | 1016.1 |
| 20260905183951 | 34 | 36 | 8.0 | 11.3 | 0.00 | 0.00 | 0.00 | 63 | 1016.0 |
| 20260905183451 | 34 | 18 | 8.0 | 12.9 | 0.00 | 0.00 | 0.00 | 62 | 1016.2 |
| 20260905182946 | 34 | 10 | 6.4 | 11.3 | 0.00 | 0.00 | 0.00 | 61 | 1016.4 |
| 20260905182445 | 33 | 0 | 4.8 | 16.1 | 0.00 | 0.00 | 0.00 | 64 | 1016.5 |
| 20260905181940 | 33 | 347 | 6.4 | 6.4 | 0.00 | 0.00 | 0.00 | 68 | 1016.2 |
| 20260905181435 | 34 | 352 | 6.4 | 11.3 | 0.00 | 0.00 | 0.00 | 63 | 1016.2 |
| 20260905180934 | 34 | 347 | 6.4 | 11.3 | 0.00 | 0.00 | 0.00 | 64 | 1016.5 |
| 20260905180429 | 33 | 32 | 3.2 | 9.7 | 0.00 | 0.00 | 0.00 | 65 | 1016.8 |
| 20260905175924 | 33 | 296 | 8.0 | 9.7 | 0.00 | 0.00 | 0.00 | 64 | 1016.6 |
| 20260905175424 | 33 | 349 | 4.8 | 9.7 | 0.00 | 0.00 | 0.00 | 69 | 1016.6 |
| 20260905174919 | 33 | 353 | 11.3 | 12.9 | 0.00 | 0.00 | 0.00 | 65 | 1016.6 |
| 20260905174415 | 33 | 32 | 8.0 | 11.3 | 0.00 | 0.00 | 0.00 | 67 | 1016.6 |
| 20260905173910 | 33 | 312 | 6.4 | 9.7 | 0.00 | 0.00 | 0.00 | 67 | 1016.6 |
| 20260905173406 | 33 | 331 | 6.4 | 9.7 | 0.00 | 0.00 | 0.00 | 68 | 1016.7 |
| 20260905172901 | 33 | 17 | 6.4 | 11.3 | 0.00 | 0.00 | 0.00 | 68 | 1016.8 |
| 20260905172359 | 33 | 41 | 6.4 | 12.9 | 0.00 | 0.00 | 0.00 | 69 | 1016.9 |
| 20260905171855 | 33 | 307 | 6.4 | 11.3 | 0.00 | 0.00 | 0.00 | 72 | 1017.0 |
| 20260905171351 | 33 | 346 | 8.0 | 11.3 | 0.00 | 0.00 | 0.00 | 70 | 1016.9 |
| 20260905170847 | 32 | 264 | 3.2 | 9.7 | 0.00 | 0.00 | 0.00 | 69 | 1016.9 |
| 20260905170338 | 32 | 265 | 8.0 | 12.9 | 0.00 | 0.00 | 0.00 | 70 | 1016.7 |
| 20260905165837 | 33 | 190 | 3.2 | 9.7 | 0.00 | 0.00 | 0.00 | 70 | 1016.8 |
| 20260905165333 | 32 | 305 | 9.7 | 11.3 | 0.00 | 0.00 | 0.00 | 70 | 1016.8 |
| 20260905164832 | 32 | 312 | 8.0 | 11.3 | 0.00 | 0.00 | 0.00 | 70 | 1016.7 |
| 20260905164328 | 32 | 306 | 9.7 | 11.3 | 0.00 | 0.00 | 0.00 | 69 | 1016.9 |
| 20260905163823 | 32 | 317 | 8.0 | 11.3 | 0.00 | 0.00 | 0.00 | 71 | 1016.9 |
| 20260905163319 | 32 | 289 | 8.0 | 12.9 | 0.00 | 0.00 | 0.00 | 68 | 1016.7 |
| 20260905162815 | 32 | 308 | 9.7 | 11.3 | 0.00 | 0.00 | 0.00 | 69 | 1017.0 |
| 20260905162314 | 32 | 291 | 9.7 | 11.3 | 0.00 | 0.00 | 0.00 | 71 | 1016.8 |
| 20260905161809 | 32 | 307 | 9.7 | 12.9 | 0.00 | 0.00 | 0.00 | 69 | 1016.8 |
| 20260905161309 | 33 | 301 | 8.0 | 9.7 | 0.00 | 0.00 | 0.00 | 68 | 1016.9 |
| 20260905160807 | 32 | 323 | 4.8 | 11.3 | 0.00 | 0.00 | 0.00 | 71 | 1016.7 |
| 20260905160301 | 32 | 323 | 8.0 | 14.5 | 0.00 | 0.00 | 0.00 | 71 | 1016.7 |
| 20260905155756 | 32 | 296 | 9.7 | 12.9 | 0.00 | 0.00 | 0.00 | 71 | 1016.7 |
| 20260905155255 | 32 | 251 | 9.7 | 12.9 | 0.00 | 0.00 | 0.00 | 71 | 1016.9 |
| 20260905154749 | 32 | 303 | 8.0 | 12.9 | 0.00 | 0.00 | 0.00 | 73 | 1016.9 |
| 20260905154245 | 32 | 312 | 6.4 | 9.7 | 0.00 | 0.00 | 0.00 | 73 | 1016.8 |
| 20260905153740 | 31 | 289 | 9.7 | 11.3 | 0.00 | 0.00 | 0.00 | 74 | 1016.6 |
| 20260905153236 | 31 | 324 | 9.7 | 14.5 | 0.00 | 0.00 | 0.00 | 75 | 1016.7 |
| 20260905152730 | 31 | 325 | 4.8 | 12.9 | 0.00 | 0.00 | 0.00 | 74 | 1016.6 |
| 20260905152225 | 31 | 309 | 9.7 | 12.9 | 0.00 | 0.00 | 0.00 | 73 | 1016.5 |
| 20260905151724 | 31 | 298 | 14.5 | 16.1 | 0.00 | 0.00 | 0.00 | 73 | 1016.8 |
| 20260905151221 | 31 | 284 | 6.4 | 12.9 | 0.00 | 0.00 | 0.00 | 74 | 1016.5 |
| 20260905150715 | 31 | 316 | 8.0 | 11.3 | 0.00 | 0.00 | 0.00 | 74 | 1016.5 |
| 20260905150215 | 31 | 290 | 6.4 | 9.7 | 0.00 | 0.00 | 0.00 | 75 | 1016.4 |
| 20260905145712 | 31 | 251 | 8.0 | 9.7 | 0.00 | 0.00 | 0.00 | 76 | 1016.4 |
| 20260905145208 | 31 | 247 | 8.0 | 11.3 | 0.00 | 0.00 | 0.00 | 75 | 1016.6 |
| 20260905144706 | 30 | 294 | 6.4 | 9.7 | 0.00 | 0.00 | 0.00 | 77 | 1016.4 |
| 20260905144206 | 30 | 267 | 9.7 | 11.3 | 0.00 | 0.00 | 0.00 | 76 | 1016.5 |
| 20260905143705 | 30 | 320 | 8.0 | 12.9 | 0.00 | 0.00 | 0.00 | 77 | 1016.4 |
| 20260905143200 | 30 | 300 | 8.0 | 9.7 | 0.00 | 0.00 | 0.00 | 76 | 1016.5 |
| 20260905142659 | 30 | 313 | 9.7 | 12.9 | 0.00 | 0.00 | 0.00 | 74 | 1016.3 |
| 20260905142153 | 30 | 275 | 6.4 | 9.7 | 0.00 | 0.00 | 0.00 | 74 | 1016.3 |
| 20260905141648 | 30 | 277 | 3.2 | 9.7 | 0.00 | 0.00 | 0.00 | 76 | 1016.4 |
| 20260905141144 | 30 | 287 | 8.0 | 9.7 | 0.00 | 0.00 | 0.00 | 75 | 1016.2 |
| 20260905140640 | 29 | 256 | 6.4 | 9.7 | 0.00 | 0.00 | 0.00 | 75 | 1016.2 |
| 20260905140138 | 29 | 280 | 6.4 | 9.7 | 0.00 | 0.00 | 0.00 | 76 | 1016.5 |
| 20260905135634 | 28 | 263 | 3.2 | 6.4 | 0.00 | 0.00 | 0.00 | 77 | 1016.2 |
| 20260905135129 | 28 | 242 | 3.2 | 4.8 | 0.00 | 0.00 | 0.00 | 79 | 1015.9 |
| 20260905134623 | 28 | 338 | 4.8 | 4.8 | 0.00 | 0.00 | 0.00 | 79 | 1016.3 |
| 20260905134122 | 28 | 290 | 4.8 | 9.7 | 0.00 | 0.00 | 0.00 | 80 | 1016.4 |
| 20260905133618 | 28 | 302 | 6.4 | 6.4 | 0.00 | 0.00 | 0.00 | 80 | 1016.3 |
| 20260905133118 | 27 | 312 | 4.8 | 6.4 | 0.00 | 0.00 | 0.00 | 82 | 1016.3 |
| 20260905132618 | 27 | 301 | 3.2 | 6.4 | 0.00 | 0.00 | 0.00 | 84 | 1016.3 |
| 20260905132113 | 27 | 317 | 4.8 | 4.8 | 0.00 | 0.00 | 0.00 | 85 | 1016.3 |
| 20260905131608 | 26 | 274 | 3.2 | 4.8 | 0.00 | 0.00 | 0.00 | 86 | 1016.5 |
| 20260905131103 | 26 | 299 | 6.4 | 6.4 | 0.00 | 0.00 | 0.00 | 86 | 1016.4 |
| 20260905130603 | 26 | 282 | 1.6 | 3.2 | 0.00 | 0.00 | 0.00 | 89 | 1016.4 |
| 20260905130057 | 26 | 320 | 1.6 | 3.2 | 0.00 | 0.00 | 0.00 | 90 | 1016.3 |
| 20260905125557 | 25 | 275 | 1.6 | 3.2 | 0.00 | 0.00 | 0.00 | 91 | 1016.3 |
| 20260905125053 | 25 | 281 | 1.6 | 3.2 | 0.00 | 0.00 | 0.00 | 92 | 1016.4 |
| 20260905124549 | 25 | 303 | 1.6 | 3.2 | 0.00 | 0.00 | 0.00 | 93 | 1016.3 |
| 20260905124045 | 24 | 300 | 1.6 | 3.2 | 0.00 | 0.00 | 0.00 | 94 | 1016.3 |
| 20260905123540 | 24 | 263 | 3.2 | 3.2 | 0.00 | 0.00 | 0.00 | 94 | 1016.3 |
| 20260905123037 | 24 | 270 | 1.6 | 1.6 | 0.00 | 0.00 | 0.00 | 94 | 1016.1 |
| 20260905122536 | 24 | 198 | 0.0 | 0.0 | 0.00 | 0.00 | 0.00 | 94 | 1016.2 |
| 20260905122031 | 23 | 157 | 0.0 | 0.0 | 0.00 | 0.00 | 0.00 | 96 | 1016.0 |
| 20260905121526 | 23 | 176 | 0.0 | 3.2 | 0.00 | 0.00 | 0.00 | 97 | 1016.4 |
| 20260905121021 | 22 | 255 | 1.6 | 1.6 | 0.00 | 0.00 | 0.00 | 97 | 1016.4 |
| 20260905120515 | 22 | 236 | 0.0 | 0.0 | 0.00 | 0.00 | 0.00 | 99 | 1016.0 |
| 20260905120010 | 22 | 238 | 0.0 | 1.6 | 0.00 | 0.00 | 0.00 | 99 | 1015.9 |
| 20260905115509 | 22 | 144 | 0.0 | 0.0 | 0.00 | 0.00 | 0.00 | 99 | 1015.8 |
| 20260905115004 | 22 | 144 | 0.0 | 0.0 | 0.00 | 0.00 | 0.00 | 99 | 1015.9 |
| 20260905114458 | 22 | 143 | 0.0 | 0.0 | 0.00 | 0.00 | 0.00 | 99 | 1015.7 |
| 20260905113956 | 21 | 156 | 3.2 | 3.2 | 0.00 | 0.00 | 0.00 | 99 | 1015.6 |
| 20260905113452 | 21 | 155 | 0.0 | 0.0 | 0.00 | 0.00 | 0.00 | 99 | 1015.8 |
| 20260905112948 | 22 | 294 | 3.2 | 3.2 | 0.00 | 0.00 | 0.00 | 99 | 1015.5 |
| 20260905112443 | 22 | 291 | 1.6 | 3.2 | 0.00 | 0.00 | 0.00 | 99 | 1015.6 |
| 20260905111938 | 22 | 292 | 3.2 | 3.2 | 0.00 | 0.00 | 0.00 | 99 | 1015.5 |
| 20260905111432 | 22 | 351 | 1.6 | 1.6 | 0.00 | 0.00 | 0.00 | 99 | 1015.4 |
| 20260905110926 | 22 | 256 | 1.6 | 3.2 | 0.00 | 0.00 | 0.00 | 99 | 1015.5 |
| 20260905110420 | 22 | 315 | 1.6 | 1.6 | 0.00 | 0.00 | 0.00 | 99 | 1015.5 |
| 20260905105914 | 22 | 314 | 1.6 | 3.2 | 0.00 | 0.00 | 0.00 | 99 | 1015.5 |
| 20260905105409 | 22 | 292 | 1.6 | 1.6 | 0.00 | 0.00 | 0.00 | 99 | 1015.3 |
| 20260905104908 | 22 | 339 | 0.0 | 1.6 | 0.00 | 0.00 | 0.00 | 99 | 1015.3 |
| 20260905104404 | 22 | 23 | 1.6 | 3.2 | 0.00 | 0.00 | 0.00 | 99 | 1015.4 |
| 20260905103859 | 22 | 28 | 3.2 | 3.2 | 0.00 | 0.00 | 0.00 | 99 | 1015.3 |
| 20260905103354 | 22 | 26 | 3.2 | 3.2 | 0.00 | 0.00 | 0.00 | 99 | 1015.4 |
| 20260905102850 | 22 | 27 | 0.0 | 0.0 | 0.00 | 0.00 | 0.00 | 99 | 1015.4 |
| 20260905102346 | 22 | 11 | 0.0 | 0.0 | 0.00 | 0.00 | 0.00 | 98 | 1015.4 |
| 20260905101841 | 22 | 9 | 0.0 | 0.0 | 0.00 | 0.00 | 0.00 | 98 | 1015.3 |
| 20260905101339 | 22 | 18 | 0.0 | 0.0 | 0.00 | 0.00 | 0.00 | 98 | 1015.2 |
| 20260905100833 | 22 | 21 | 0.0 | 0.0 | 0.00 | 0.00 | 0.00 | 98 | 1015.5 |
| 20260905100329 | 23 | 15 | 0.0 | 0.0 | 0.00 | 0.00 | 0.00 | 98 | 1015.5 |
| 20260905095828 | 23 | 12 | 0.0 | 0.0 | 0.00 | 0.00 | 0.00 | 98 | 1015.5 |
| 20260905095323 | 23 | 310 | 0.0 | 0.0 | 0.00 | 0.00 | 0.00 | 98 | 1015.6 |
| 20260905094818 | 22 | 293 | 0.0 | 0.0 | 0.00 | 0.00 | 0.00 | 97 | 1015.7 |
| 20260905094314 | 23 | 242 | 3.2 | 3.2 | 0.00 | 0.00 | 0.00 | 97 | 1015.5 |
| 20260905093812 | 23 | 254 | 1.6 | 3.2 | 0.00 | 0.00 | 0.00 | 97 | 1015.6 |
| 20260905093308 | 22 | 238 | 3.2 | 3.2 | 0.00 | 0.00 | 0.00 | 98 | 1015.4 |
| 20260905092804 | 22 | 233 | 3.2 | 4.8 | 0.00 | 0.00 | 0.00 | 98 | 1015.7 |
| 20260905092258 | 23 | 298 | 0.0 | 0.0 | 0.00 | 0.00 | 0.00 | 98 | 1015.6 |
| 20260905091753 | 23 | 305 | 0.0 | 0.0 | 0.00 | 0.00 | 0.00 | 98 | 1015.5 |
| 20260905091253 | 22 | 11 | 0.0 | 0.0 | 0.00 | 0.00 | 0.00 | 98 | 1015.6 |
| 20260905090751 | 22 | 11 | 0.0 | 0.0 | 0.00 | 0.00 | 0.00 | 98 | 1015.6 |
| 20260905090248 | 22 | 72 | 0.0 | 1.6 | 0.00 | 0.00 | 0.00 | 98 | 1015.6 |
| 20260905085742 | 22 | 72 | 0.0 | 1.6 | 0.00 | 0.00 | 0.00 | 98 | 1015.7 |
| 20260905085242 | 23 | 93 | 0.0 | 0.0 | 0.00 | 0.00 | 0.00 | 98 | 1015.7 |
| 20260905084741 | 23 | 114 | 0.0 | 0.0 | 0.00 | 0.00 | 0.00 | 99 | 1015.7 |
| 20260905084236 | 22 | 124 | 0.0 | 0.0 | 0.00 | 0.00 | 0.00 | 99 | 1015.6 |
| 20260905083731 | 22 | 124 | 0.0 | 0.0 | 0.00 | 0.00 | 0.00 | 99 | 1015.5 |
| 20260905083226 | 22 | 124 | 0.0 | 0.0 | 0.00 | 0.00 | 0.00 | 99 | 1015.7 |
| 20260905082722 | 22 | 123 | 0.0 | 0.0 | 0.00 | 0.00 | 0.00 | 99 | 1015.7 |
| 20260905082217 | 22 | 123 | 0.0 | 0.0 | 0.00 | 0.00 | 0.00 | 99 | 1015.9 |
| 20260905081712 | 22 | 138 | 0.0 | 0.0 | 0.00 | 0.00 | 0.00 | 99 | 1016.1 |
| 20260905081207 | 22 | 138 | 0.0 | 0.0 | 0.00 | 0.00 | 0.00 | 99 | 1016.2 |
| 20260905080706 | 22 | 138 | 0.0 | 0.0 | 0.00 | 0.00 | 0.00 | 99 | 1016.1 |
| 20260905080201 | 22 | 138 | 0.0 | 0.0 | 0.00 | 0.00 | 0.00 | 99 | 1016.1 |
| 20260905075700 | 22 | 126 | 0.0 | 0.0 | 0.00 | 0.00 | 0.00 | 98 | 1016.2 |
| 20260905075159 | 23 | 124 | 0.0 | 1.6 | 0.00 | 0.00 | 0.00 | 97 | 1016.0 |
| 20260905074658 | 23 | 269 | 0.0 | 0.0 | 0.00 | 0.00 | 0.00 | 98 | 1016.1 |
| 20260905074154 | 23 | 269 | 0.0 | 0.0 | 0.00 | 0.00 | 0.00 | 98 | 1016.0 |
| 20260905073650 | 23 | 269 | 0.0 | 0.0 | 0.00 | 0.00 | 0.00 | 97 | 1015.7 |
| 20260905073146 | 23 | 270 | 1.6 | 1.6 | 0.00 | 0.00 | 0.00 | 97 | 1015.9 |
| 20260905072645 | 23 | 253 | 1.6 | 3.2 | 0.00 | 0.00 | 0.00 | 97 | 1016.0 |
| 20260905072140 | 23 | 262 | 0.0 | 0.0 | 0.00 | 0.00 | 0.00 | 97 | 1015.9 |
| 20260905071637 | 23 | 268 | 0.0 | 1.6 | 0.00 | 0.00 | 0.00 | 97 | 1015.8 |
| 20260905071132 | 23 | 272 | 1.6 | 3.2 | 0.00 | 0.00 | 0.00 | 98 | 1015.8 |
| 20260905070627 | 23 | 270 | 3.2 | 3.2 | 0.00 | 0.00 | 0.00 | 98 | 1016.0 |
| 20260905070123 | 23 | 278 | 1.6 | 1.6 | 0.00 | 0.00 | 0.00 | 96 | 1016.0 |
| 20260905065621 | 23 | 323 | 0.0 | 0.0 | 0.00 | 0.00 | 0.00 | 94 | 1016.1 |
| 20260905065116 | 24 | 46 | 0.0 | 0.0 | 0.00 | 0.00 | 0.00 | 94 | 1016.2 |
| 20260905064611 | 24 | 46 | 0.0 | 0.0 | 0.00 | 0.00 | 0.00 | 94 | 1016.0 |
| 20260905064107 | 24 | 46 | 0.0 | 0.0 | 0.00 | 0.00 | 0.00 | 95 | 1016.0 |
| 20260905063605 | 24 | 35 | 0.0 | 0.0 | 0.00 | 0.00 | 0.00 | 95 | 1015.9 |
| 20260905063102 | 24 | 35 | 0.0 | 0.0 | 0.00 | 0.00 | 0.00 | 95 | 1016.2 |
| 20260905062557 | 24 | 35 | 0.0 | 0.0 | 0.00 | 0.00 | 0.00 | 94 | 1016.2 |
| 20260905062056 | 24 | 17 | 0.0 | 0.0 | 0.00 | 0.00 | 0.00 | 95 | 1016.3 |
| 20260905061551 | 24 | 31 | 0.0 | 0.0 | 0.00 | 0.00 | 0.00 | 95 | 1016.1 |
| 20260905061050 | 23 | 19 | 0.0 | 0.0 | 0.00 | 0.00 | 0.00 | 96 | 1016.3 |
| 20260905060547 | 23 | 33 | 0.0 | 0.0 | 0.00 | 0.00 | 0.00 | 96 | 1016.2 |
| 20260905060043 | 23 | 43 | 0.0 | 0.0 | 0.00 | 0.00 | 0.00 | 96 | 1016.2 |
| 20260905055541 | 24 | 41 | 1.6 | 1.6 | 0.00 | 0.00 | 0.00 | 95 | 1016.2 |
| 20260905055036 | 24 | 44 | 1.6 | 1.6 | 0.00 | 0.00 | 0.00 | 96 | 1015.9 |
| 20260905054532 | 24 | 41 | 1.6 | 3.2 | 0.00 | 0.00 | 0.00 | 95 | 1016.0 |
| 20260905054027 | 24 | 62 | 1.6 | 3.2 | 0.00 | 0.00 | 0.00 | 94 | 1016.1 |
| 20260905053521 | 24 | 40 | 0.0 | 1.6 | 0.00 | 0.00 | 0.00 | 95 | 1015.8 |